Aeroporto :
LOGIN :

Iscrizione | Disclaimer

   EN    FR    IT 

 










Sommario :    VFR   VFR Marginale   IFR   IFR Intensivo   IFR Molto Intensivo
Visibilità : 
Base nubi : 
>= 8 km
>= 3000ft
5 / 8 km
1000 / 3000 ft
1500m / 5 km
500 / 1000 ft
800 / 1500m
200 / 500 ft
< 800m
< 200 ft
Simboli :   Temporali  Nebbia  Neve Forte  Precipitazioni Forti  Vento > 20 kt
SIGMETs :   Varie  Temporali  Ghiacco  Turbolenza  Onda orograficha  Ceneri Vulcaniche






- Altitudine del aeroporto : 14 ft
- Codice IATA : URE


EEKE - Kuressaare

ULTIMO METAR :
  • 280950Z 35006KT 300V010 9999 VCSH SCT014 M00/M03 Q1001 R17/190095

METARs OBSOLETI :
  • 280850Z 36005KT 310V020 CAVOK M00/M02 Q1000 R17/190095
  • 280750Z 36006KT 9999 FEW046 M02/M03 Q0999 R17/190095

TAF TAF EEKE
Valido dal 28 a 07 ore il 28 a 13 ore UTC


280600Z 2807/2813 30008KT 9999 BKN030
TEMPO 2807/2810 3000 SHSN BKN005 SCT015CB



MetMap, La meteo Aeronautica in un colpo d'occhio ! - Copyright ORBIFLY Dicembre 2007 - Disclaimer

ORBIFLY MET'MAP TEAM :

Programmazione e sviluppo : Alexandra Zaïnal
Concezione : Baudouin d'Aumeries
Aiuto per la programmazione : Marc-Olivier Méhu
Supporto tecnico e logistico : Manuel Goepfert
Aiuto per la traduzione : Arnaldo La Scala

Contatto : metmap@orbifly.com




FONTI E CREDITI :

   NOAA